Flag for Colombia Weather past 2 weeks in Manizales, Colombia

Now
68 °F

Passing clouds.


Feels Like: 68 °F
Forecast: 54 / 75 °F
Wind: 9 mph from East

Location: Pereira / Matecana

Current Time: Aug 20, 2014 at 1:59:14 AM

Latest Report: Aug 19, 2014 at 11:00 PM


Visibility: N/A

Pressure: 30.10 "Hg

Humidity: 69%

Dew point: 57 °F

Location of ManizalesLocation

Historic Weather in Manizales — Graph

°F

Manizales temperature yesterday

Maximum temperature yesterday: 82 °F (at 2:00 PM)
Minimum temperature yesterday: 66 °F (at 5:00 AM)
Average temperature yesterday: 74 °F

Past Weeks' High & Low Weather Summary

 TemperatureHumidityPressure
High86 °F (Aug 15, 2:00 PM)94% (Aug 5, 5:00 AM)30.18 "Hg (Aug 5, 5:00 AM)
Low64 °F (Aug 8, 7:00 AM)42% (Aug 19, 4:00 PM)29.96 "Hg (Aug 15, 4:00 PM)
Average73 °F72%30.09 "Hg
* Reported Midnight between Aug 4 and Aug 5 — Aug 19 11:00 PM, Manizales, Weather by CustomWeather, © 2014

Note: Actual official high and low records may vary slightly from our data, if they occured in-between our weather recording intervals... More about our weather records

Advertising

Manizales weather history for previous 24 hours

 ConditionsComfort  
Time TempWeatherWind HumidityBarometerVisibility
11:00 PM
Aug 19
68 °FPassing clouds.9 mph69%30.10 "HgN/A
10:00 PM70 °FPassing clouds.8 mph64%30.09 "HgN/A
9:00 PM72 °FPassing clouds.6 mph61%30.08 "HgN/A
8:00 PM73 °FPassing clouds.7 mph53%30.06 "HgN/A
7:00 PM75 °FPassing clouds.3 mph47%30.03 "HgN/A
6:00 PM79 °FScattered clouds.6 mph54%30.00 "HgN/A
5:00 PM79 °FScattered clouds.6 mph51%29.98 "HgN/A
4:00 PM82 °FScattered clouds.8 mph42%29.97 "HgN/A
3:00 PM82 °FScattered clouds.6 mph48%30.00 "HgN/A
2:00 PM82 °FScattered clouds.8 mph48%30.03 "HgN/A
1:00 PM81 °FScattered clouds.12 mph51%30.06 "HgN/A
12:00 PM75 °FScattered clouds.3 mph69%30.08 "HgN/A
11:00 AM73 °FScattered clouds.3 mph78%30.10 "HgN/A
10:00 AM73 °FScattered clouds.3 mph78%30.12 "HgN/A
9:00 AM72 °FScattered clouds.2 mph78%30.13 "HgN/A
8:00 AM70 °FScattered clouds.N/A83%30.12 "HgN/A
7:00 AM66 °FScattered clouds.3 mph88%30.09 "HgN/A
6:00 AM66 °FScattered clouds.7 mph88%30.07 "HgN/A
5:00 AM66 °FPassing clouds.7 mph88%30.06 "HgN/A
Weather by CustomWeather, © 2014

See weather overviewHow to use our weather pages